Date,TemperatureHighF,TemperatureAvgF,TemperatureLowF,DewpointHighF,DewpointAvgF,DewpointLowF,HumidityHigh,HumidityAvg,HumidityLow,PressureMaxIn,PressureMinIn,WindSpeedMaxMPH,WindSpeedAvgMPH,GustSpeedMaxMPH,PrecipitationSumIn
2013-1-1,73.0,65.8,59.0,-99.9,-99.9,-99.9,0,0,100,30.25,30.07,15,-2,19,0.00
2013-1-2,73.0,67.2,63.0,-99.9,-99.9,-99.9,0,0,100,30.10,30.03,13,-1,17,0.00
2013-1-3,71.0,64.1,60.0,-99.9,-99.9,-99.9,0,0,100,30.20,30.06,13,4,19,0.00
2013-1-4,62.0,59.2,56.0,-99.9,-99.9,-99.9,0,0,100,30.31,30.18,11,7,15,0.00
2013-1-5,73.0,64.0,57.0,-99.9,-99.9,-99.9,0,0,100,30.33,30.21,11,6,16,0.00
2013-1-6,76.0,66.4,62.0,-99.9,-99.9,-99.9,0,0,100,30.24,30.10,12,-10,15,0.00
2013-1-7,66.0,62.9,60.0,-99.9,-99.9,-99.9,0,0,100,30.24,30.14,13,7,19,0.00
2013-1-8,80.0,68.8,63.0,-99.9,-99.9,-99.9,0,0,100,30.25,30.15,6,4,11,0.00
2013-1-9,80.0,71.4,67.0,-99.9,-99.9,-99.9,0,0,100,30.32,30.19,6,3,9,0.00
2013-1-10,78.0,70.9,67.0,-99.9,-99.9,-99.9,0,0,100,30.32,30.23,10,4,13,0.00
2013-1-11,78.0,70.8,66.0,-99.9,-99.9,-99.9,0,0,100,30.30,30.16,12,-17,14,0.00
2013-1-12,80.0,71.0,67.0,-99.9,-99.9,-99.9,0,0,100,30.22,30.11,10,-26,13,0.00
2013-1-13,78.0,71.2,67.0,-99.9,-99.9,-99.9,0,0,100,30.20,30.09,9,-4,12,0.00
2013-1-14,77.0,72.2,66.0,-99.9,-99.9,-99.9,0,0,100,30.22,30.15,11,-108,13,0.00
2013-1-15,77.0,70.3,66.0,-99.9,-99.9,-99.9,0,0,100,30.18,30.09,12,-30,15,0.00
2013-1-16,78.0,70.8,67.0,-99.9,-99.9,-99.9,0,0,100,30.14,30.04,10,-8,13,0.00
2013-1-17,72.0,64.2,56.0,-99.9,-99.9,-99.9,0,0,100,30.18,30.03,20,-3,29,0.00
2013-1-18,64.0,54.3,44.0,-99.9,-99.9,-99.9,0,0,100,30.34,30.18,17,10,28,0.00
2013-1-19,71.0,63.5,56.0,-99.9,-99.9,-99.9,0,0,100,30.31,30.16,12,6,18,0.00
2013-1-20,74.0,66.3,61.0,-99.9,-99.9,-99.9,0,0,100,30.21,30.07,9,5,13,0.00
2013-1-21,71.0,65.7,62.0,-99.9,-99.9,-99.9,0,0,100,30.14,30.06,13,5,17,0.00
2013-1-22,65.0,61.1,58.0,-99.9,-99.9,-99.9,0,0,100,30.32,30.11,14,7,18,0.00
2013-1-23,68.0,59.3,53.0,-99.9,-99.9,-99.9,0,0,100,30.40,30.30,10,6,15,0.00
2013-1-24,70.0,61.2,53.0,-99.9,-99.9,-99.9,0,0,100,30.37,30.28,12,-2,16,0.00
2013-1-25,71.0,62.9,57.0,-99.9,-99.9,-99.9,0,0,100,30.35,30.23,9,4,11,0.00
2013-1-26,72.0,63.3,56.0,-99.9,-99.9,-99.9,0,0,100,30.32,30.21,12,-2,15,0.00
2013-1-27,75.0,66.3,60.0,-99.9,-99.9,-99.9,0,0,100,30.35,30.24,7,3,10,0.00
2013-1-28,80.0,69.4,64.0,-99.9,-99.9,-99.9,0,0,100,30.35,30.24,8,-3,11,0.00
2013-1-29,78.0,69.6,64.0,-99.9,-99.9,-99.9,0,0,100,30.28,30.12,14,6,18,0.00
2013-1-30,75.0,70.9,67.0,-99.9,-99.9,-99.9,0,0,100,30.13,29.95,26,16,35,0.00
2013-1-31,71.0,57.6,54.0,-99.9,-99.9,-99.9,0,0,100,30.27,29.95,20,10,25,0.00
2013-2-1,66.0,57.6,51.0,-99.9,-99.9,-99.9,0,0,100,30.40,30.26,15,7,23,0.00
2013-2-2,69.0,58.8,53.0,-99.9,-99.9,-99.9,0,0,100,30.34,30.19,10,6,15,0.00
2013-2-3,68.0,59.2,53.0,-99.9,-99.9,-99.9,0,0,100,30.24,30.13,14,5,17,0.00
2013-2-4,66.0,59.4,53.0,-99.9,-99.9,-99.9,0,0,100,30.18,30.08,10,-3,13,0.00
2013-2-5,71.0,63.3,57.0,-99.9,-99.9,-99.9,0,0,100,30.13,30.04,11,-30,14,0.00
2013-2-6,75.0,67.8,62.0,-99.9,-99.9,-99.9,0,0,100,30.14,30.06,11,4,13,0.00
2013-2-7,75.0,68.6,64.0,-99.9,-99.9,-99.9,0,0,100,30.09,29.87,35,11,42,0.00
2013-2-8,74.0,67.4,61.0,-99.9,-99.9,-99.9,0,0,100,30.12,29.93,16,8,20,0.00
2013-2-9,75.0,64.9,58.0,-99.9,-99.9,-99.9,0,0,100,30.24,30.10,11,6,18,0.00
2013-2-10,77.0,68.6,63.0,-99.9,-99.9,-99.9,0,0,100,30.28,30.16,15,7,17,0.00
2013-2-11,76.0,69.1,64.0,-99.9,-99.9,-99.9,0,0,100,30.23,30.12,18,10,24,0.00
2013-2-12,75.0,70.6,66.0,-99.9,-99.9,-99.9,0,0,100,30.14,29.99,22,10,28,0.00
2013-2-13,75.0,70.5,63.0,-99.9,-99.9,-99.9,0,0,100,30.04,29.90,21,12,34,0.00
2013-2-14,66.0,46.4,60.0,-99.9,-99.9,-99.9,0,0,100,30.08,29.96,13,-196,17,0.00
2013-2-15,65.0,27.1,57.0,-99.9,-99.9,-99.9,0,0,100,30.12,29.99,9,-447,13,0.00
2013-2-16,65.0,22.4,56.0,-99.9,-99.9,-99.9,0,0,100,30.16,29.98,20,-373,30,0.00
2013-2-17,54.0,18.4,43.0,-99.9,-99.9,-99.9,0,0,100,30.37,30.16,17,-378,27,0.00
2013-2-18,67.0,24.7,46.0,-99.9,-99.9,-99.9,0,0,100,30.40,30.24,14,-434,19,0.00
2013-2-19,71.0,20.7,59.0,-99.9,-99.9,-99.9,0,0,100,30.24,30.14,19,-272,24,0.00
2013-2-20,69.0,27.0,62.0,-99.9,-99.9,-99.9,0,0,100,30.13,30.09,8,-410,11,0.00
2013-2-21,76.0,24.4,62.0,-99.9,-99.9,-99.9,0,0,100,30.14,30.02,12,-354,16,0.00
2013-2-22,77.0,34.3,64.0,-99.9,-99.9,-99.9,0,0,100,30.10,30.03,18,-487,22,0.00
2013-2-23,76.0,31.0,68.0,-99.9,-99.9,-99.9,0,0,100,30.04,29.93,19,-417,25,0.00
2013-2-24,75.0,27.4,68.0,-99.9,-99.9,-99.9,0,0,100,29.99,29.91,12,-389,18,0.00
2013-2-25,77.0,23.4,67.0,-99.9,-99.9,-99.9,0,0,100,29.93,29.81,17,-319,22,0.00
2013-2-26,75.0,30.3,68.0,-99.9,-99.9,-99.9,0,0,100,29.92,29.73,24,-418,30,0.00
2013-2-27,69.0,26.8,60.0,-99.9,-99.9,-99.9,0,0,100,30.01,29.90,15,-407,18,0.00
2013-2-28,69.0,28.0,58.0,-99.9,-99.9,-99.9,0,0,100,30.04,29.95,16,-433,23,0.00
2013-3-1,60.0,26.9,55.0,-99.9,-99.9,-99.9,0,0,100,30.06,29.95,14,-461,20,0.00
2013-3-2,56.0,18.2,50.0,-99.9,-99.9,-99.9,0,0,100,30.11,30.01,18,-329,28,0.00
2013-3-3,54.0,21.2,44.0,-99.9,-99.9,-99.9,0,0,100,30.19,30.02,20,-427,27,0.00
2013-3-4,59.0,20.3,47.0,-99.9,-99.9,-99.9,0,0,100,30.26,30.16,12,-379,14,0.00
2013-3-5,67.0,25.6,54.0,-99.9,-99.9,-99.9,0,0,100,30.20,30.07,16,-410,19,0.00
2013-3-6,67.0,21.9,55.0,-99.9,-99.9,-99.9,0,0,100,30.17,30.00,21,-358,29,0.00
2013-3-7,61.0,24.4,47.0,-99.9,-99.9,-99.9,0,0,100,30.27,30.16,12,-453,17,0.00
2013-3-8,70.0,24.2,50.0,-99.9,-99.9,-99.9,0,0,100,30.26,30.15,10,-408,14,0.00
2013-3-9,73.0,21.9,57.0,-99.9,-99.9,-99.9,0,0,100,30.25,30.16,9,-341,13,0.00
2013-3-10,74.0,24.4,60.0,-99.9,-99.9,-99.9,0,0,100,30.20,30.07,10,-369,14,0.00
2013-3-11,73.0,25.8,62.0,-99.9,-99.9,-99.9,0,0,100,30.13,29.93,19,-381,23,0.00
2013-3-12,69.0,25.7,59.0,-99.9,-99.9,-99.9,0,0,100,30.08,29.88,21,-393,27,0.00
2013-3-13,70.0,30.5,58.0,-99.9,-99.9,-99.9,0,0,100,30.22,30.07,16,-490,24,0.00
2013-3-14,63.0,26.4,53.0,-99.9,-99.9,-99.9,0,0,100,30.31,30.20,14,-451,21,0.00
2013-3-15,66.0,20.3,52.0,-99.9,-99.9,-99.9,0,0,100,30.33,30.19,12,-346,15,0.00
2013-3-16,69.0,28.2,54.0,-99.9,-99.9,-99.9,0,0,100,30.23,30.12,12,-454,15,0.00
2013-3-17,71.0,25.1,58.0,-99.9,-99.9,-99.9,0,0,100,30.17,30.03,15,-383,19,0.00
2013-3-18,72.0,31.6,64.0,-99.9,-99.9,-99.9,0,0,100,30.06,29.92,23,-468,28,0.00
2013-3-19,78.0,30.3,64.0,-99.9,-99.9,-99.9,0,0,100,30.06,29.92,15,-426,17,0.00
2013-3-20,70.0,25.4,62.0,-99.9,-99.9,-99.9,0,0,100,30.01,29.85,18,-376,27,0.00
2013-3-21,67.0,23.5,55.0,-99.9,-99.9,-99.9,0,0,100,30.04,29.91,12,-382,18,0.00
2013-3-22,73.0,27.1,55.0,-99.9,-99.9,-99.9,0,0,100,30.03,29.92,11,-432,15,0.00
2013-3-23,76.0,30.3,65.0,-99.9,-99.9,-99.9,0,0,100,30.00,29.83,19,-435,25,0.00
2013-3-24,75.0,28.8,69.0,-99.9,-99.9,-99.9,0,0,100,29.86,29.69,19,-394,28,0.00
2013-3-25,69.0,22.2,58.0,-99.9,-99.9,-99.9,0,0,100,30.09,29.79,17,-340,29,0.00
2013-3-26,59.0,21.2,51.0,-99.9,-99.9,-99.9,0,0,100,30.28,30.08,25,-383,32,0.00
2013-3-27,55.0,20.4,47.0,-99.9,-99.9,-99.9,0,0,100,30.37,30.25,13,-400,19,0.00
2013-3-28,67.0,21.9,50.0,-99.9,-99.9,-99.9,0,0,100,30.34,30.23,12,-377,16,0.00
2013-3-29,73.0,24.2,56.0,-99.9,-99.9,-99.9,0,0,100,30.36,30.23,11,-375,14,0.00
2013-3-30,70.0,25.0,58.0,-99.9,-99.9,-99.9,0,0,100,30.28,30.17,16,-386,20,0.00
2013-3-31,73.0,22.9,62.0,-99.9,-99.9,-99.9,0,0,100,30.21,30.05,15,-333,20,0.00
2013-4-1,75.0,23.5,67.0,-99.9,-99.9,-99.9,0,0,100,30.07,30.00,19,-327,24,0.00
2013-4-2,76.0,29.1,65.0,-99.9,-99.9,-99.9,0,0,100,30.13,30.04,13,-418,14,0.00
2013-4-3,79.0,28.0,67.0,-99.9,-99.9,-99.9,0,0,100,30.11,29.97,16,-388,21,0.00
2013-4-4,72.0,26.8,67.0,-99.9,-99.9,-99.9,0,0,100,30.09,29.89,28,-369,31,0.00
2013-4-5,71.0,28.8,63.0,-99.9,-99.9,-99.9,0,0,100,30.01,29.85,20,-410,25,0.00
2013-4-6,75.0,25.0,57.0,-99.9,-99.9,-99.9,0,0,100,30.14,30.02,13,-390,19,0.00
2013-4-7,80.0,28.0,64.0,-99.9,-99.9,-99.9,0,0,100,30.19,30.07,10,-386,13,0.00
2013-4-8,82.0,30.6,67.0,-99.9,-99.9,-99.9,0,0,100,30.17,30.07,11,-410,15,0.00
2013-4-9,79.0,28.5,68.0,-99.9,-99.9,-99.9,0,0,100,30.18,30.09,14,-386,18,0.00
2013-4-10,84.0,28.1,68.0,-99.9,-99.9,-99.9,0,0,100,30.15,29.99,14,-370,24,0.00
2013-4-11,83.0,30.5,72.0,-99.9,-99.9,-99.9,0,0,100,30.02,29.84,20,-392,25,0.00
2013-4-12,77.0,26.9,74.0,-99.9,-99.9,-99.9,0,0,100,29.95,29.82,26,-348,32,0.00
2013-4-13,80.0,31.4,72.0,-99.9,-99.9,-99.9,0,0,100,30.02,29.91,10,-417,15,0.00
2013-4-14,80.0,32.0,68.0,-99.9,-99.9,-99.9,0,0,100,30.04,29.89,19,-424,24,0.00
2013-4-15,84.0,33.1,70.0,-99.9,-99.9,-99.9,0,0,100,30.10,29.96,19,-432,22,0.00
2013-4-16,87.0,29.1,74.0,-99.9,-99.9,-99.9,0,0,100,30.17,30.06,9,-368,16,0.00
2013-4-17,85.0,31.8,72.0,-99.9,-99.9,-99.9,0,0,100,30.17,30.05,12,-406,18,0.00
2013-4-18,84.0,32.9,71.0,-99.9,-99.9,-99.9,0,0,100,30.08,29.98,13,-425,16,0.00
2013-4-19,82.0,29.7,73.0,-99.9,-99.9,-99.9,0,0,100,30.04,29.97,24,-372,28,0.00
2013-4-20,77.0,24.4,64.0,-99.9,-99.9,-99.9,0,0,100,30.17,29.99,18,-338,23,0.00
2013-4-21,80.0,28.5,62.0,-99.9,-99.9,-99.9,0,0,100,30.17,30.05,14,-397,19,0.00
2013-4-22,79.0,32.4,69.0,-99.9,-99.9,-99.9,0,0,100,30.11,30.00,18,-443,24,0.00
2013-4-23,83.0,29.2,67.0,-99.9,-99.9,-99.9,0,0,100,30.14,30.05,13,-393,18,0.00
2013-4-24,83.0,29.1,67.0,-99.9,-99.9,-99.9,0,0,100,30.17,30.10,12,-394,17,0.00
2013-4-25,81.0,29.8,72.0,-99.9,-99.9,-99.9,0,0,100,30.24,30.13,13,-390,16,0.00
2013-4-26,86.0,30.6,72.0,-99.9,-99.9,-99.9,0,0,100,30.28,30.18,10,-390,13,0.00
2013-4-27,84.0,29.4,72.0,-99.9,-99.9,-99.9,0,0,100,30.25,30.11,12,-376,16,0.00
2013-4-28,83.0,30.8,71.0,-99.9,-99.9,-99.9,0,0,100,30.16,30.00,14,-390,20,0.00
2013-4-29,80.0,26.5,72.0,-99.9,-99.9,-99.9,0,0,100,30.06,29.94,16,-341,20,0.00
2013-4-30,85.0,28.0,69.0,-99.9,-99.9,-99.9,0,0,100,30.03,29.94,19,-361,22,0.00
2013-5-1,75.0,29.9,69.0,-99.9,-99.9,-99.9,0,0,100,30.03,29.94,17,-409,25,0.00
2013-5-2,77.0,31.3,68.0,-99.9,-99.9,-99.9,0,0,100,30.00,29.85,11,-430,17,0.00
2013-5-3,78.0,27.7,71.0,-99.9,-99.9,-99.9,0,0,100,29.86,29.75,19,-368,22,0.00
2013-5-4,77.0,31.2,68.0,-99.9,-99.9,-99.9,0,0,100,29.85,29.72,19,-413,26,0.00
2013-5-5,73.0,25.5,65.0,-99.9,-99.9,-99.9,0,0,100,29.98,29.84,18,-360,25,0.00
2013-5-6,72.0,27.2,66.0,-99.9,-99.9,-99.9,0,0,100,30.05,29.93,16,-387,21,0.00
2013-5-7,73.0,30.7,65.0,-99.9,-99.9,-99.9,0,0,100,30.09,30.01,16,-440,20,0.00
2013-5-8,74.0,28.2,67.0,-99.9,-99.9,-99.9,0,0,100,30.17,30.07,15,-394,20,0.00
2013-5-9,81.0,32.4,69.0,-99.9,-99.9,-99.9,0,0,100,30.19,30.11,11,-420,16,0.00
2013-5-10,83.0,27.9,69.0,-99.9,-99.9,-99.9,0,0,100,30.18,30.03,13,-360,17,0.00
2013-5-11,82.0,30.1,73.0,-99.9,-99.9,-99.9,0,0,100,30.10,30.03,15,-385,19,0.00
2013-5-12,81.0,28.6,75.0,-99.9,-99.9,-99.9,0,0,100,30.09,29.98,15,-364,20,0.00
2013-5-13,82.0,27.2,71.0,-99.9,-99.9,-99.9,0,0,100,30.17,30.05,12,-350,20,0.00
2013-5-14,80.0,29.2,67.0,-99.9,-99.9,-99.9,0,0,100,30.25,30.15,11,-399,15,0.00
2013-5-15,85.0,33.3,70.0,-99.9,-99.9,-99.9,0,0,100,30.24,30.10,13,-437,17,0.00
2013-5-16,85.0,27.5,70.0,-99.9,-99.9,-99.9,0,0,100,30.17,30.03,17,-362,20,0.00
2013-5-17,82.0,30.5,72.0,-99.9,-99.9,-99.9,0,0,100,30.13,30.06,15,-391,17,0.00
2013-5-18,84.0,32.9,73.0,-99.9,-99.9,-99.9,0,0,100,30.15,30.05,13,-418,17,0.00
2013-5-19,84.0,38.0,73.0,-99.9,-99.9,-99.9,0,0,100,30.13,30.02,12,-479,15,0.00
2013-5-20,87.0,34.0,75.0,-99.9,-99.9,-99.9,0,0,100,30.11,30.00,13,-427,22,0.00
2013-5-21,84.0,26.8,72.0,-99.9,-99.9,-99.9,0,0,100,30.07,29.95,17,-345,25,0.00
2013-5-22,84.0,29.4,73.0,-99.9,-99.9,-99.9,0,0,100,30.01,29.92,14,-374,16,0.00
2013-5-23,84.0,35.9,75.0,-99.9,-99.9,-99.9,0,0,100,30.05,29.95,13,-442,17,0.00
2013-5-24,90.0,32.2,76.0,-99.9,-99.9,-99.9,0,0,100,30.11,30.01,14,-380,18,0.00
2013-5-25,88.0,37.5,77.0,-99.9,-99.9,-99.9,0,0,100,30.21,30.09,17,-454,24,0.00
2013-5-26,85.0,28.3,72.0,-99.9,-99.9,-99.9,0,0,100,30.25,30.14,17,-359,22,0.00
2013-5-27,86.0,40.2,73.0,-99.9,-99.9,-99.9,0,0,100,30.21,30.08,18,-322,24,0.00
2013-5-28,87.0,29.2,74.0,-99.9,-99.9,-99.9,0,0,100,30.18,30.06,19,-364,25,0.00
2013-5-29,84.0,21.4,74.0,-99.9,-99.9,-99.9,0,0,100,30.12,30.06,22,-266,29,0.00
2013-5-30,85.0,30.3,76.0,-99.9,-99.9,-99.9,0,0,100,30.11,30.03,27,-374,32,0.00
2013-5-31,83.0,33.9,75.0,-99.9,-99.9,-99.9,0,0,100,30.11,30.03,16,-428,23,0.00
2013-6-1,85.0,30.8,75.0,-99.9,-99.9,-99.9,0,0,100,30.09,29.98,14,-387,18,0.00
2013-6-2,84.0,30.0,74.0,-99.9,-99.9,-99.9,0,0,100,30.03,29.93,14,-377,17,0.00
2013-6-3,82.0,31.4,76.0,-99.9,-99.9,-99.9,0,0,100,30.04,29.93,17,-389,22,0.00
2013-6-4,81.0,32.7,77.0,-99.9,-99.9,-99.9,0,0,100,30.05,29.97,23,-407,30,0.00
2013-6-5,82.0,27.5,76.0,-99.9,-99.9,-99.9,0,0,100,30.05,29.92,21,-342,23,0.00
2013-6-6,79.0,31.0,75.0,-99.9,-99.9,-99.9,0,0,100,29.93,29.69,33,-390,42,0.00
2013-6-7,82.0,28.4,75.0,-99.9,-99.9,-99.9,0,0,100,30.00,29.82,14,-355,18,0.00
2013-6-8,83.0,29.4,74.0,-99.9,-99.9,-99.9,0,0,100,30.13,29.99,20,-367,28,0.00
2013-6-9,86.0,22.3,75.0,-99.9,-99.9,-99.9,0,0,100,30.13,30.04,27,-276,34,0.00
2013-6-10,87.0,30.6,77.0,-99.9,-99.9,-99.9,0,0,100,30.12,30.05,15,-372,17,0.00
2013-6-11,85.0,27.2,78.0,-99.9,-99.9,-99.9,0,0,100,30.12,30.05,12,-330,15,0.00
2013-6-12,90.0,32.4,77.0,-99.9,-99.9,-99.9,0,0,100,30.13,30.04,12,-386,16,0.00
2013-6-13,87.0,31.1,79.0,-99.9,-99.9,-99.9,0,0,100,30.08,29.95,13,-370,16,0.00
2013-6-14,84.0,36.2,80.0,-99.9,-99.9,-99.9,0,0,100,29.99,29.92,15,-436,19,0.00
2013-6-15,86.0,33.9,80.0,-99.9,-99.9,-99.9,0,0,100,30.08,29.96,12,-408,18,0.00
2013-6-16,86.0,35.9,79.0,-99.9,-99.9,-99.9,0,0,100,30.11,30.05,13,-435,18,0.00
2013-6-17,88.0,35.5,80.0,-99.9,-99.9,-99.9,0,0,100,30.11,30.03,12,-419,16,0.00
2013-6-18,87.0,34.1,81.0,-99.9,-99.9,-99.9,0,0,100,30.09,30.01,12,-403,15,0.00
2013-6-19,88.0,34.9,80.0,-99.9,-99.9,-99.9,0,0,100,30.07,30.01,18,-394,21,0.00
2013-6-20,89.0,21.3,80.0,-99.9,-99.9,-99.9,0,0,100,30.14,30.04,9,-254,11,0.00
2013-6-22,89.0,23.0,75.0,-99.9,-99.9,-99.9,0,0,100,30.15,30.07,15,-268,21,0.00
2013-6-23,90.0,21.7,79.0,-99.9,-99.9,-99.9,0,0,100,30.17,30.09,23,-260,32,0.00
2013-6-24,91.0,23.2,79.0,-99.9,-99.9,-99.9,0,0,100,30.22,30.09,17,-276,21,0.00
2013-6-25,92.0,20.0,77.0,-99.9,-99.9,-99.9,0,0,100,30.18,30.06,15,-232,20,0.00
2013-6-26,86.0,20.0,77.0,-99.9,-99.9,-99.9,0,0,100,30.11,30.04,18,-244,21,0.00
2013-6-27,85.0,14.1,77.0,-99.9,-99.9,-99.9,0,0,100,30.08,29.99,18,-167,20,0.00
2013-6-28,86.0,12.9,79.0,-99.9,-99.9,-99.9,0,0,100,30.01,29.89,16,-148,22,0.00
2013-6-29,83.0,21.7,75.0,-99.9,-99.9,-99.9,0,0,100,29.93,29.84,18,-262,26,0.00
2013-6-30,85.0,26.1,76.0,-99.9,-99.9,-99.9,0,0,100,29.92,29.84,22,-311,27,0.00
2013-7-1,80.0,25.0,73.0,-99.9,-99.9,-99.9,0,0,100,30.02,29.87,25,-313,29,0.00
2013-7-2,85.0,13.2,75.0,-99.9,-99.9,-99.9,0,0,100,30.11,29.98,27,-156,35,0.00
2013-7-3,83.0,19.9,76.0,-99.9,-99.9,-99.9,0,0,100,30.14,30.07,34,-247,39,0.00
2013-7-4,86.0,24.6,76.0,-99.9,-99.9,-99.9,0,0,100,30.18,30.09,18,-294,24,0.00
2013-7-5,85.0,17.2,75.0,-99.9,-99.9,-99.9,0,0,100,30.17,30.09,31,-213,36,0.00
2013-7-6,89.0,27.7,77.0,-99.9,-99.9,-99.9,0,0,100,30.15,30.06,16,-301,19,0.00
2013-7-7,89.0,29.5,78.0,-99.9,-99.9,-99.9,0,0,100,30.16,30.05,12,-345,14,0.00
2013-7-8,88.0,18.4,79.0,-99.9,-99.9,-99.9,0,0,100,30.19,30.11,13,-180,16,0.00
2013-7-9,91.0,22.0,79.0,-99.9,-99.9,-99.9,0,0,100,30.21,30.08,13,-258,16,0.00
2013-7-10,87.0,18.7,76.0,-99.9,-99.9,-99.9,0,0,100,30.13,29.99,25,-214,33,0.00
2013-7-11,84.0,19.8,78.0,-99.9,-99.9,-99.9,0,0,100,30.07,29.96,15,-241,24,0.00
2013-7-12,85.0,18.8,78.0,-99.9,-99.9,-99.9,0,0,100,29.99,29.92,13,-228,16,0.00
2013-7-13,83.0,25.3,75.0,-99.9,-99.9,-99.9,0,0,100,30.02,29.94,18,-310,21,0.00
2013-7-14,84.0,27.4,75.0,-99.9,-99.9,-99.9,0,0,100,30.11,29.98,18,-344,20,0.00
2013-7-15,88.0,24.2,76.0,-99.9,-99.9,-99.9,0,0,100,30.14,30.04,16,-299,19,0.00
2013-7-16,85.0,16.9,77.0,-99.9,-99.9,-99.9,0,0,100,30.18,30.10,20,-207,36,0.00
2013-7-17,87.0,15.7,77.0,-99.9,-99.9,-99.9,0,0,100,30.19,30.10,19,-191,21,0.00
2013-7-18,85.0,17.0,75.0,-99.9,-99.9,-99.9,0,0,100,30.15,30.08,27,-214,31,0.00
2013-7-19,83.0,17.1,75.0,-99.9,-99.9,-99.9,0,0,100,30.16,30.08,19,-213,24,0.00
2013-7-20,87.0,23.2,76.0,-99.9,-99.9,-99.9,0,0,100,30.15,30.05,26,-286,36,0.00
2013-7-21,86.0,26.8,78.0,-99.9,-99.9,-99.9,0,0,100,30.16,30.08,14,-322,17,0.00
2013-7-22,85.0,21.5,80.0,-99.9,-99.9,-99.9,0,0,100,30.17,30.10,15,-255,20,0.00
2013-7-23,84.0,13.6,81.0,-99.9,-99.9,-99.9,0,0,100,30.13,30.01,15,-159,19,0.00
2013-7-24,85.0,26.7,82.0,-99.9,-99.9,-99.9,0,0,100,30.05,29.95,18,-312,23,0.00
2013-7-25,85.0,17.0,82.0,-99.9,-99.9,-99.9,0,0,100,30.04,29.92,18,-194,23,0.00
2013-7-26,88.0,23.3,77.0,-99.9,-99.9,-99.9,0,0,100,30.05,29.99,18,-278,25,0.00
2013-7-27,89.0,22.8,81.0,-99.9,-99.9,-99.9,0,0,100,30.04,29.96,14,-264,18,0.00
2013-7-28,87.0,35.6,79.0,-99.9,-99.9,-99.9,0,0,100,30.09,29.98,13,-427,20,0.00
2013-7-29,92.0,17.8,80.0,-99.9,-99.9,-99.9,0,0,100,30.18,30.06,28,-206,33,0.00
2013-7-30,93.0,40.2,81.0,-99.9,-99.9,-99.9,0,0,100,30.21,30.14,11,-472,13,0.00
2013-7-31,90.0,82.9,80.0,-99.9,-99.9,-99.9,0,0,100,0.00,40.00,0,-999,0,0.00
2013-8-1,88.0,83.0,78.0,-99.9,-99.9,-99.9,0,0,100,0.00,40.00,0,-999,0,0.00
2013-8-2,88.0,82.7,75.0,-99.9,-99.9,-99.9,0,0,100,0.00,40.00,0,-999,0,0.00
2013-8-3,87.0,84.7,80.0,-99.9,-99.9,-99.9,0,0,100,0.00,40.00,0,-999,0,0.00
2013-8-4,88.0,84.5,81.0,-99.9,-99.9,-99.9,0,0,100,0.00,40.00,0,-999,0,0.00
2013-8-5,88.0,85.2,83.0,-99.9,-99.9,-99.9,0,0,100,30.06,30.03,9,-952,15,0.00
2013-8-6,87.0,84.0,81.0,-99.9,-99.9,-99.9,0,0,100,30.00,30.00,6,-987,8,0.00
2013-8-7,88.0,53.3,75.0,-99.9,-99.9,-99.9,0,0,100,30.02,29.93,25,-644,37,0.00
2013-8-8,89.0,24.4,77.0,-99.9,-99.9,-99.9,0,0,100,30.05,29.96,16,-287,26,0.00
2013-8-9,89.0,13.8,76.0,-99.9,-99.9,-99.9,0,0,100,30.09,30.00,16,-165,22,0.00
2013-8-10,90.0,21.3,79.0,-99.9,-99.9,-99.9,0,0,100,30.16,30.07,15,-245,20,0.00
2013-8-11,93.0,28.0,81.0,-99.9,-99.9,-99.9,0,0,100,30.18,30.09,18,-324,20,0.00
2013-8-12,92.0,27.1,80.0,-99.9,-99.9,-99.9,0,0,100,30.16,30.04,10,-318,13,0.00
2013-8-13,87.0,3.0,86.0,-99.9,-99.9,-99.9,0,0,100,30.09,29.97,16,-28,18,0.00
2013-8-14,85.0,2.4,83.0,-99.9,-99.9,-99.9,0,0,100,30.04,29.96,13,-23,17,0.00
2013-8-15,84.0,4.9,80.0,-99.9,-99.9,-99.9,0,0,100,30.07,29.99,16,-50,20,0.00
2013-8-16,84.0,3.2,83.0,-99.9,-99.9,-99.9,0,0,100,30.08,30.00,20,-31,28,0.00
2013-8-17,89.0,5.0,79.0,-99.9,-99.9,-99.9,0,0,100,30.11,30.02,20,-55,24,0.00
2013-8-18,87.0,2.2,81.0,-99.9,-99.9,-99.9,0,0,100,30.13,30.04,16,-20,20,0.00
2013-8-19,88.0,2.3,80.0,-99.9,-99.9,-99.9,0,0,100,30.11,29.99,24,-21,31,0.00
2013-8-20,79.0,3.2,79.0,-99.9,-99.9,-99.9,0,0,100,30.11,30.03,18,-35,23,0.00
2013-8-21,84.0,3.2,80.0,-99.9,-99.9,-99.9,0,0,100,30.13,30.03,21,-31,26,0.00
2013-8-22,87.0,4.9,80.0,-99.9,-99.9,-99.9,0,0,100,30.12,30.00,25,-52,30,0.00
2013-8-23,88.0,5.2,80.0,-99.9,-99.9,-99.9,0,0,100,30.05,29.99,14,-58,19,0.00
2013-8-24,87.0,1.1,87.0,-99.9,-99.9,-99.9,0,0,100,30.15,30.03,20,-6,29,0.00
2013-8-25,84.0,2.2,79.0,-99.9,-99.9,-99.9,0,0,100,30.19,30.10,11,-20,15,0.00
2013-8-26,87.0,4.5,78.0,-99.9,-99.9,-99.9,0,0,100,30.17,30.04,20,-48,28,0.00
2013-8-27,78.0,4.5,78.0,-99.9,-99.9,-99.9,0,0,100,30.09,30.02,10,-32,15,0.00
2013-8-28,88.0,4.9,80.0,-99.9,-99.9,-99.9,0,0,100,30.08,30.00,21,-54,27,0.00
2013-8-29,87.0,4.4,79.0,-99.9,-99.9,-99.9,0,0,100,30.07,29.97,11,-47,16,0.00
2013-8-30,86.0,4.8,82.0,-99.9,-99.9,-99.9,0,0,100,30.04,29.93,16,-52,21,0.00
2013-8-31,85.0,2.2,83.0,-99.9,-99.9,-99.9,0,0,100,30.02,29.93,10,-22,15,0.00
2013-9-1,86.0,3.4,81.0,-99.9,-99.9,-99.9,0,0,100,30.02,29.95,13,-33,14,0.00
2013-9-2,87.0,4.5,82.0,-99.9,-99.9,-99.9,0,0,100,30.06,29.97,12,-46,20,0.00
2013-9-3,86.0,3.1,83.0,-99.9,-99.9,-99.9,0,0,100,30.07,29.97,13,-32,15,0.00
2013-9-4,82.0,2.2,78.0,-99.9,-99.9,-99.9,0,0,100,30.12,30.00,31,-22,36,0.00
2013-9-5,86.0,3.2,80.0,-99.9,-99.9,-99.9,0,0,100,30.13,30.04,15,-33,23,0.00
2013-9-6,89.0,4.3,77.0,-99.9,-99.9,-99.9,0,0,100,30.10,29.98,20,-46,29,0.00
2013-9-7,87.0,2.3,80.0,-99.9,-99.9,-99.9,0,0,100,30.06,29.95,18,-22,26,0.00
2013-9-8,88.0,6.7,78.0,-99.9,-99.9,-99.9,0,0,100,30.01,29.90,9,-76,16,0.00
2013-9-9,80.0,2.0,80.0,-99.9,-99.9,-99.9,0,0,100,30.06,29.96,17,-17,22,0.00
2013-9-10,89.0,3.3,79.0,-99.9,-99.9,-99.9,0,0,100,30.12,30.02,16,-31,21,0.00
2013-9-11,83.0,2.2,79.0,-99.9,-99.9,-99.9,0,0,100,30.11,30.02,19,-18,23,0.00
2013-9-12,85.0,1.0,85.0,-99.9,-99.9,-99.9,0,0,100,30.05,29.92,16,-7,25,0.00
2013-9-13,78.0,3.1,77.0,-99.9,-99.9,-99.9,0,0,100,29.95,29.85,9,-36,20,0.00
2013-9-14,86.0,4.3,80.0,-99.9,-99.9,-99.9,0,0,100,30.01,29.88,12,-49,16,0.00
2013-9-15,81.0,1.5,81.0,-99.9,-99.9,-99.9,0,0,100,30.12,29.99,33,-10,42,0.00
2013-9-16,-200.0,0.0,200.0,-99.9,-99.9,-99.9,0,0,100,30.10,30.01,31,8,36,0.00
2013-9-17,-200.0,0.0,200.0,-99.9,-99.9,-99.9,0,0,100,30.09,29.98,20,8,30,0.00
2013-9-18,-200.0,0.0,200.0,-99.9,-99.9,-99.9,0,0,100,30.06,30.00,12,8,17,0.00
2013-9-19,85.0,2.4,83.0,-99.9,-99.9,-99.9,0,0,100,30.09,30.00,12,-21,19,0.00
2013-9-20,83.0,3.5,79.0,-99.9,-99.9,-99.9,0,0,100,30.06,29.93,13,-36,17,0.00
2013-9-21,82.0,2.0,79.0,-99.9,-99.9,-99.9,0,0,100,29.97,29.82,14,-18,17,0.00
2013-9-22,83.0,2.3,81.0,-99.9,-99.9,-99.9,0,0,100,29.89,29.79,20,-19,24,0.00
2013-9-23,-200.0,0.0,200.0,-99.9,-99.9,-99.9,0,0,100,29.98,29.86,19,10,23,0.00
2013-9-24,77.0,1.3,77.0,-99.9,-99.9,-99.9,0,0,100,29.99,29.88,18,-7,20,0.00
2013-9-25,81.0,3.0,80.0,-99.9,-99.9,-99.9,0,0,100,29.96,29.83,20,-28,33,0.00
2013-9-26,81.0,4.6,78.0,-99.9,-99.9,-99.9,0,0,100,29.91,29.82,16,-49,23,0.00
2013-9-27,75.0,1.0,75.0,-99.9,-99.9,-99.9,0,0,100,30.00,29.91,12,-7,17,0.00
2013-9-28,82.0,1.4,82.0,-99.9,-99.9,-99.9,0,0,100,30.05,29.95,14,-10,20,0.00
2013-9-29,85.0,2.1,75.0,-99.9,-99.9,-99.9,0,0,100,30.03,29.93,13,-20,17,0.00
2013-9-30,-200.0,0.0,200.0,-99.9,-99.9,-99.9,0,0,100,30.03,29.95,13,5,18,0.00
2013-10-1,81.0,5.4,81.0,-99.9,-99.9,-99.9,0,0,100,30.08,30.01,12,-58,16,0.00
2013-10-2,83.0,5.3,76.0,-99.9,-99.9,-99.9,0,0,100,30.09,30.00,11,-60,17,0.00
2013-10-3,-200.0,0.0,200.0,-99.9,-99.9,-99.9,0,0,100,30.10,30.01,10,6,14,0.00
2013-10-4,87.0,4.9,78.0,-99.9,-99.9,-99.9,0,0,100,30.12,30.03,10,-56,13,0.00
2013-10-5,84.0,6.3,78.0,-99.9,-99.9,-99.9,0,0,100,30.10,29.97,13,-72,17,0.00
2013-10-6,77.0,0.9,77.0,-99.9,-99.9,-99.9,0,0,100,30.03,29.90,10,-7,14,0.00
2013-10-7,84.0,3.3,78.0,-99.9,-99.9,-99.9,0,0,100,29.91,29.80,22,-28,26,0.00
2013-10-8,82.0,3.4,77.0,-99.9,-99.9,-99.9,0,0,100,29.99,29.84,15,-32,20,0.00
2013-10-9,77.0,3.8,75.0,-99.9,-99.9,-99.9,0,0,100,30.08,29.98,12,-44,16,0.00
2013-10-10,80.0,3.1,71.0,-99.9,-99.9,-99.9,0,0,100,30.10,30.00,8,-37,15,0.00
2013-10-11,82.0,5.2,74.0,-99.9,-99.9,-99.9,0,0,100,30.09,29.99,11,-62,14,0.00
2013-10-12,83.0,6.1,76.0,-99.9,-99.9,-99.9,0,0,100,30.09,30.01,9,-72,15,0.00
2013-10-13,84.0,3.0,77.0,-99.9,-99.9,-99.9,0,0,100,30.13,30.03,8,-33,12,0.00
2013-10-14,84.0,4.3,73.0,-99.9,-99.9,-99.9,0,0,100,30.09,29.97,10,-49,15,0.00
2013-10-15,73.0,2.7,70.0,-99.9,-99.9,-99.9,0,0,100,30.05,29.94,9,-32,14,0.00
2013-10-16,79.0,5.4,73.0,-99.9,-99.9,-99.9,0,0,100,30.01,29.94,8,-69,11,0.00
2013-10-17,79.0,2.8,75.0,-99.9,-99.9,-99.9,0,0,100,30.02,29.94,11,-32,13,0.00
2013-10-18,81.0,4.0,76.0,-99.9,-99.9,-99.9,0,0,100,30.02,29.94,10,-46,13,0.00
2013-10-19,82.0,2.9,77.0,-99.9,-99.9,-99.9,0,0,100,29.99,29.91,10,-30,12,0.00
2013-10-20,82.0,3.0,79.0,-99.9,-99.9,-99.9,0,0,100,30.00,29.91,9,-34,11,0.00
2013-10-21,83.0,4.3,78.0,-99.9,-99.9,-99.9,0,0,100,30.04,29.96,11,-48,14,0.00
2013-10-22,82.0,4.3,76.0,-99.9,-99.9,-99.9,0,0,100,29.99,29.86,15,-49,20,0.00
2013-10-23,77.0,3.1,74.0,-99.9,-99.9,-99.9,0,0,100,30.05,29.85,14,-33,21,0.00
2013-10-24,71.0,3.7,66.0,-99.9,-99.9,-99.9,0,0,100,30.20,30.05,17,-45,21,0.00
2013-10-25,79.0,3.1,66.0,-99.9,-99.9,-99.9,0,0,100,30.28,30.18,9,-37,13,0.00
2013-10-26,71.0,1.0,71.0,-99.9,-99.9,-99.9,0,0,100,30.25,30.13,11,-8,17,0.00
2013-10-27,65.0,0.9,65.0,-99.9,-99.9,-99.9,0,0,100,30.17,30.09,10,-8,15,0.00
2013-10-28,80.0,3.1,69.0,-99.9,-99.9,-99.9,0,0,100,30.23,30.13,10,-38,14,0.00
2013-10-29,80.0,2.9,72.0,-99.9,-99.9,-99.9,0,0,100,30.26,30.16,9,-33,16,0.00
2013-10-30,72.0,1.8,71.0,-99.9,-99.9,-99.9,0,0,100,30.27,30.13,10,-20,13,0.00
2013-10-31,82.0,5.1,73.0,-99.9,-99.9,-99.9,0,0,100,30.17,30.01,10,-60,11,0.00
2013-11-1,79.0,5.4,74.0,-99.9,-99.9,-99.9,0,0,100,30.04,29.92,18,-61,24,0.00
2013-11-2,69.0,0.8,69.0,-99.9,-99.9,-99.9,0,0,100,30.03,29.85,14,-5,19,0.00
2013-11-3,75.0,2.8,66.0,-99.9,-99.9,-99.9,0,0,100,30.15,30.01,13,-33,20,0.00
2013-11-4,77.0,3.5,64.0,-99.9,-99.9,-99.9,0,0,100,30.19,30.12,16,-39,23,0.00
2013-11-5,78.0,1.9,68.0,-99.9,-99.9,-99.9,0,0,100,30.18,30.08,12,-18,21,0.00
2013-11-6,73.0,2.1,72.0,-99.9,-99.9,-99.9,0,0,100,30.14,30.05,12,-22,17,0.00
2013-11-7,74.0,1.8,73.0,-99.9,-99.9,-99.9,0,0,100,30.10,30.01,8,-20,12,0.00
2013-11-8,77.0,1.8,71.0,-99.9,-99.9,-99.9,0,0,100,30.15,30.04,14,-16,21,0.00
2013-11-9,79.0,3.8,68.0,-99.9,-99.9,-99.9,0,0,100,30.20,30.11,11,-44,17,0.00
2013-11-10,75.0,3.8,69.0,-99.9,-99.9,-99.9,0,0,100,30.20,30.11,10,-49,12,0.00
2013-11-11,75.0,2.2,72.0,-99.9,-99.9,-99.9,0,0,100,30.19,30.10,8,-24,13,0.00
2013-11-12,72.0,3.0,70.0,-99.9,-99.9,-99.9,0,0,100,30.15,30.05,13,-38,17,0.00
2013-11-13,69.0,3.9,61.0,-99.9,-99.9,-99.9,0,0,100,30.34,30.12,18,-48,27,0.00
2013-11-14,57.0,0.8,57.0,-99.9,-99.9,-99.9,0,0,100,30.32,30.20,12,-6,19,0.00
2013-11-15,71.0,2.6,66.0,-99.9,-99.9,-99.9,0,0,100,30.22,30.09,9,-32,14,0.00
2013-11-16,73.0,4.5,69.0,-99.9,-99.9,-99.9,0,0,100,30.16,30.06,9,-60,10,0.00
2013-11-17,77.0,1.9,76.0,-99.9,-99.9,-99.9,0,0,100,30.12,30.03,10,-8,15,0.00
2013-11-18,71.0,1.8,71.0,-99.9,-99.9,-99.9,0,0,100,30.06,29.97,10,-21,14,0.00
2013-11-19,76.0,6.5,70.0,-99.9,-99.9,-99.9,0,0,100,30.01,29.92,9,-84,14,0.00
2013-11-20,-200.0,0.0,200.0,-99.9,-99.9,-99.9,0,0,100,30.13,30.00,10,6,14,0.00
2013-11-21,75.0,4.1,71.0,-99.9,-99.9,-99.9,0,0,100,30.21,30.12,13,-50,18,0.00
2013-11-22,76.0,1.9,73.0,-99.9,-99.9,-99.9,0,0,100,30.22,30.12,10,-20,13,0.00
2013-11-23,75.0,1.1,75.0,-99.9,-99.9,-99.9,0,0,100,30.16,30.05,12,-9,17,0.00
2013-11-24,70.0,6.3,61.0,-99.9,-99.9,-99.9,0,0,100,30.25,30.07,18,-86,24,0.00
2013-11-25,65.0,0.8,65.0,-99.9,-99.9,-99.9,0,0,100,30.25,30.09,14,-3,20,0.00
2013-11-26,75.0,3.7,69.0,-99.9,-99.9,-99.9,0,0,100,30.10,29.80,29,-38,33,0.00
2013-11-27,72.0,2.6,65.0,-99.9,-99.9,-99.9,0,0,100,30.24,29.78,25,-24,33,0.00
2013-11-28,58.0,2.1,50.0,-99.9,-99.9,-99.9,0,0,100,30.38,30.24,15,-31,25,0.00
2013-11-29,56.0,1.5,54.0,-99.9,-99.9,-99.9,0,0,100,30.39,30.29,11,-20,17,0.00
2013-11-30,73.0,4.2,71.0,-99.9,-99.9,-99.9,0,0,100,30.35,30.21,10,-52,15,0.00
2013-12-1,63.0,2.4,61.0,-99.9,-99.9,-99.9,0,0,100,30.23,30.03,8,-34,13,0.00
2013-12-2,69.0,2.6,60.0,-99.9,-99.9,-99.9,0,0,100,30.03,29.89,8,-37,13,0.00
2013-12-3,73.0,3.9,66.0,-99.9,-99.9,-99.9,0,0,100,30.02,29.92,10,-50,11,0.00
2013-12-4,76.0,2.0,70.0,-99.9,-99.9,-99.9,0,0,100,30.11,30.00,11,-24,14,0.00
2013-12-5,68.0,0.9,68.0,-99.9,-99.9,-99.9,0,0,100,30.20,30.11,7,-10,9,0.00
2013-12-6,78.0,1.0,78.0,-99.9,-99.9,-99.9,0,0,100,30.21,30.12,14,-7,20,0.00
2013-12-7,75.0,4.7,69.0,-99.9,-99.9,-99.9,0,0,100,30.27,30.17,6,-50,7,0.00
2013-12-8,79.0,32.0,69.0,-99.9,-99.9,-99.9,0,0,100,30.25,30.13,7,-41,9,0.00
2013-12-9,-200.0,0.0,200.0,-99.9,-99.9,-99.9,0,0,100,30.22,30.12,15,7,21,0.00
2013-12-10,74.0,2.7,70.0,-99.9,-99.9,-99.9,0,0,100,30.20,30.12,15,-30,18,0.00
2013-12-11,80.0,2.1,70.0,-99.9,-99.9,-99.9,0,0,100,30.28,30.18,10,-21,16,0.00
2013-12-12,69.0,5.8,64.0,-99.9,-99.9,-99.9,0,0,100,30.34,30.22,14,-79,20,0.00
2013-12-13,66.0,2.3,56.0,-99.9,-99.9,-99.9,0,0,100,30.33,30.14,11,-31,18,0.00
2013-12-14,77.0,1.8,68.0,-99.9,-99.9,-99.9,0,0,100,30.15,29.98,21,-13,25,0.00
2013-12-15,73.0,3.7,64.0,-99.9,-99.9,-99.9,0,0,100,30.17,29.93,16,-45,22,0.00
2013-12-16,60.0,3.5,53.0,-99.9,-99.9,-99.9,0,0,100,30.26,30.15,10,-55,15,0.00
2013-12-17,60.0,2.1,54.0,-99.9,-99.9,-99.9,0,0,100,30.29,30.19,12,-32,16,0.00
2013-12-18,70.0,3.4,66.0,-99.9,-99.9,-99.9,0,0,100,30.33,30.23,11,-44,16,0.00
2013-12-19,73.0,2.4,57.0,-99.9,-99.9,-99.9,0,0,100,30.31,30.19,11,-31,15,0.00
2013-12-20,76.0,3.2,64.0,-99.9,-99.9,-99.9,0,0,100,30.23,30.12,10,-42,12,0.00
2013-12-21,76.0,2.7,67.0,-99.9,-99.9,-99.9,0,0,100,30.17,30.05,14,-30,18,0.00
2013-12-22,76.0,4.0,69.0,-99.9,-99.9,-99.9,0,0,100,30.16,30.10,20,-48,24,0.00
2013-12-23,74.0,2.8,69.0,-99.9,-99.9,-99.9,0,0,100,30.20,30.13,18,-32,23,0.00
2013-12-24,73.0,2.7,56.0,-99.9,-99.9,-99.9,0,0,100,30.30,30.15,15,-32,20,0.00
2013-12-25,-200.0,0.0,200.0,-99.9,-99.9,-99.9,0,0,100,30.29,30.16,12,7,18,0.00
2013-12-26,67.0,0.9,67.0,-99.9,-99.9,-99.9,0,0,100,30.24,30.13,10,-7,13,0.00
2013-12-27,64.0,1.6,62.0,-99.9,-99.9,-99.9,0,0,100,30.29,30.17,11,-19,15,0.00
2013-12-28,70.0,3.8,66.0,-99.9,-99.9,-99.9,0,0,100,30.25,30.04,12,-50,16,0.00
2013-12-29,73.0,1.9,70.0,-99.9,-99.9,-99.9,0,0,100,30.05,29.92,27,-18,32,0.00
2013-12-30,62.0,0.8,62.0,-99.9,-99.9,-99.9,0,0,100,30.23,30.04,8,-9,12,0.00
2013-12-31,66.0,1.8,63.0,-99.9,-99.9,-99.9,0,0,100,30.33,30.20,9,-22,15,0.00
2014-1-1,64.0,5.4,60.0,-99.9,-99.9,-99.9,0,0,100,30.28,30.09,12,-79,16,0.00
2014-1-2,70.0,2.0,64.0,-99.9,-99.9,-99.9,0,0,100,30.09,29.89,19,-20,27,0.00